DW8455 Weather Reports


time (UTC)temp
C
wind
direction
speed
KPH
gust
KPH
rain 1hr
cm
rain 24hr
cm
rain mn
cm
humidity
%
barometer
mb
20260906231015 29 68 6.4 11.3 0.00 0.00 0.00 22 1018.9
20260906230015 29 23 8.0 12.9 0.00 0.00 0.00 22 1018.9
20260906225015 28 315 6.4 9.7 0.00 0.00 0.00 21 1018.6
20260906224015 29 338 6.4 12.9 0.00 0.00 0.00 22 1018.9
20260906223016 28 0 6.4 11.3 0.00 0.00 0.00 22 1018.7
20260906222015 27 158 4.8 9.7 0.00 0.00 0.00 22 1019.0
20260906221016 28 180 6.4 14.5 0.00 0.00 0.00 22 1019.4
20260906220017 28 68 1.6 6.4 0.00 0.00 0.00 22 1019.2
20260906215018 28 45 6.4 11.3 0.00 0.00 0.00 23 1019.7
20260906214017 28 23 9.7 16.1 0.00 0.00 0.00 24 1019.4
20260906213018 27 270 3.2 8.0 0.00 0.00 0.00 24 1019.6
20260906212018 27 23 11.3 17.7 0.00 0.00 0.00 25 1019.8
20260906211037 27 338 11.3 17.7 0.00 0.00 0.00 24 1019.7
20260906210017 27 338 6.4 11.3 0.00 0.00 0.00 26 1020.4
20260906205017 27 0 9.7 14.5 0.00 0.00 0.00 28 1020.2
20260906204017 27 338 12.9 17.7 0.00 0.00 0.00 32 1020.5
20260906203018 26 0 11.3 22.5 0.00 0.00 0.00 30 1020.6
20260906202018 26 315 12.9 20.9 0.00 0.00 0.00 32 1020.8
20260906201017 25 0 19.3 25.7 0.00 0.00 0.00 34 1020.6
20260906200017 25 23 17.7 25.7 0.00 0.00 0.00 37 1021.1
20260906195017 24 0 19.3 27.4 0.00 0.00 0.00 42 1021.1
20260906194017 25 0 14.5 20.9 0.00 0.00 0.00 44 1021.7
20260906193037 24 23 11.3 20.9 0.00 0.00 0.00 47 1021.7
20260906192017 23 23 8.0 16.1 0.00 0.00 0.00 49 1022.0
20260906191017 22 23 9.7 19.3 0.00 0.00 0.00 49 1021.9
20260906190017 23 338 11.3 17.7 0.00 0.00 0.00 47 1022.5
20260906185037 22 68 6.4 12.9 0.00 0.00 0.00 45 1022.8
20260906184017 22 0 8.0 12.9 0.00 0.00 0.00 48 1022.8
20260906183017 21 0 8.0 14.5 0.00 0.00 0.00 47 1022.9
20260906182017 21 45 6.4 9.7 0.00 0.00 0.00 48 1023.2
20260906181017 21 90 6.4 12.9 0.00 0.00 0.00 44 1023.2
20260906180017 21 45 4.8 11.3 0.00 0.00 0.00 43 1023.5
20260906175017 20 23 3.2 9.7 0.00 0.00 0.00 49 1023.8
20260906174017 20 23 4.8 9.7 0.00 0.00 0.00 50 1023.7
20260906173017 19 0 3.2 12.9 0.00 0.00 0.00 50 1023.9
20260906172017 19 0 4.8 8.0 0.00 0.00 0.00 52 1024.6
20260906171017 18 23 4.8 11.3 0.00 0.00 0.00 54 1024.5
20260906170057 17 338 6.4 11.3 0.00 0.00 0.00 55 1024.3
20260906165037 17 315 1.6 4.8 0.00 0.00 0.00 56 1024.6
20260906164017 17 293 3.2 6.4 0.00 0.00 0.00 56 1024.7
20260906163017 16 315 3.2 9.7 0.00 0.00 0.00 57 1024.9
20260906162017 16 248 3.2 6.4 0.00 0.00 0.00 57 1025.1
20260906161017 16 248 1.6 4.8 0.00 0.00 0.00 59 1025.2
20260906160017 15 248 1.6 4.8 0.00 0.00 0.00 61 1025.1
20260906155017 14 203 1.6 4.8 0.00 0.00 0.00 64 1025.3
20260906154037 13 135 1.6 4.8 0.00 0.00 0.00 66 1025.0
20260906153017 13 158 4.8 8.0 0.00 0.00 0.00 68 1024.8
20260906152017 12 180 6.4 9.7 0.00 0.00 0.00 70 1025.3
20260906151017 11 180 8.0 11.3 0.00 0.00 0.00 71 1024.9
20260906150017 11 180 4.8 9.7 0.00 0.00 0.00 73 1025.0
20260906145017 11 158 3.2 4.8 0.00 0.00 0.00 72 1024.9
20260906144037 10 113 1.6 3.2 0.00 0.00 0.00 75 1024.6
20260906143017 9 68 3.2 6.4 0.00 0.00 0.00 79 1024.3
20260906142017 8 45 6.4 11.3 0.00 0.00 0.00 81 1024.7
20260906141017 7 45 6.4 8.0 0.00 0.00 0.00 82 1024.4
20260906140017 7 0 4.8 6.4 0.00 0.00 0.00 82 1023.9
20260906135017 6 0 3.2 4.8 0.00 0.00 0.00 80 1024.8
20260906134016 8 293 4.8 9.7 0.00 0.00 0.00 76 1025.2
20260906133037 8 90 4.8 8.0 0.00 0.00 0.00 78 1025.4
20260906132017 7 90 9.7 14.5 0.00 0.00 0.00 78 1026.1
20260906130036 7 113 4.8 6.4 0.00 0.00 0.00 78 1025.8
20260906125016 7 0.0 0.0 0.00 0.00 0.00 77 1025.8
20260906124017 7 0.0 0.0 0.00 0.00 0.00 76 1025.5
20260906123017 8 0.0 0.0 0.00 0.00 0.00 75 1025.2
20260906122017 8 135 3.2 4.8 0.00 0.00 0.00 76 1025.5
20260906121037 8 113 3.2 4.8 0.00 0.00 0.00 76 1025.4
20260906120017 8 113 4.8 6.4 0.00 0.00 0.00 76 1025.4
20260906115017 8 180 3.2 6.4 0.00 0.00 0.00 75 1025.7
20260906114016 8 180 6.4 8.0 0.00 0.00 0.00 75 1025.6
20260906113016 8 0.0 0.0 0.00 0.00 0.00 74 1025.7
20260906112017 9 0.0 0.0 0.00 0.00 0.00 72 1025.5
20260906111017 10 135 1.6 4.8 0.00 0.00 0.00 71 1025.9
20260906110038 9 158 4.8 8.0 0.00 0.00 0.00 72 1025.5
20260906105036 9 158 4.8 9.7 0.00 0.00 0.00 73 1025.4
20260906104017 8 0.0 0.0 0.00 0.00 0.00 73 1025.4
20260906103016 9 0.0 0.0 0.00 0.00 0.00 74 1025.2
20260906102017 9 0.0 0.0 0.00 0.00 0.00 73 1025.2
20260906101017 9 0.0 0.0 0.00 0.00 0.00 72 1025.1
20260906100017 10 0.0 1.6 0.00 0.00 0.00 71 1025.3
20260906095017 10 68 1.6 3.2 0.00 0.00 0.00 70 1025.0
20260906094016 10 0.0 3.2 0.00 0.00 0.00 68 1025.1
20260906093016 11 68 1.6 3.2 0.00 0.00 0.00 68 1024.9
20260906092016 10 0.0 0.0 0.00 0.00 0.00 68 1024.7
20260906091016 11 0.0 0.0 0.00 0.00 0.00 68 1025.2
20260906090016 11 0.0 1.6 0.00 0.00 0.00 67 1025.3
20260906085017 11 113 1.6 4.8 0.00 0.00 0.00 67 1024.8
20260906084016 11 135 6.4 8.0 0.00 0.00 0.00 67 1024.7
20260906083016 11 270 1.6 4.8 0.00 0.00 0.00 67 1024.6
20260906082016 11 0.0 3.2 0.00 0.00 0.00 66 1024.4
20260906081016 12 135 1.6 8.0 0.00 0.00 0.00 63 1024.4
20260906080016 12 135 1.6 4.8 0.00 0.00 0.00 63 1024.8
20260906075016 12 135 4.8 6.4 0.00 0.00 0.00 63 1024.5
20260906074016 12 158 3.2 4.8 0.00 0.00 0.00 61 1024.6
20260906073016 13 158 4.8 6.4 0.00 0.00 0.00 60 1024.7
20260906072016 12 158 6.4 8.0 0.00 0.00 0.00 61 1025.1
20260906071016 12 270 1.6 4.8 0.00 0.00 0.00 61 1025.1
20260906070016 13 270 1.6 6.4 0.00 0.00 0.00 61 1025.0
20260906065036 13 0.0 0.0 0.00 0.00 0.00 60 1024.2
20260906064016 13 0.0 0.0 0.00 0.00 0.00 59 1024.2
20260906063016 13 0.0 0.0 0.00 0.00 0.00 58 1024.3
20260906062016 14 0.0 0.0 0.00 0.00 0.00 57 1024.4
20260906061016 13 0.0 4.8 0.00 0.00 0.00 57 1024.3
20260906060016 14 0.0 0.0 0.00 0.00 0.00 56 1024.3
20260906055016 14 0.0 0.0 0.00 0.00 0.00 56 1024.1
20260906054016 15 0.0 0.0 0.00 0.00 0.00 55 1024.0
20260906053016 15 0.0 3.2 0.00 0.00 0.00 53 1023.9
20260906052036 15 135 3.2 6.4 0.00 0.00 0.00 54 1023.2
20260906051016 15 90 3.2 4.8 0.00 0.00 0.00 53 1023.1
20260906050016 15 0.0 3.2 0.00 0.00 0.00 51 1023.1
20260906045015 16 45 1.6 4.8 0.00 0.00 0.00 50 1023.0
20260906044015 16 45 3.2 6.4 0.00 0.00 0.00 49 1022.9
20260906043016 16 23 6.4 8.0 0.00 0.00 0.00 47 1023.0
20260906042016 16 45 4.8 9.7 0.00 0.00 0.00 49 1022.7
20260906041016 16 0 3.2 6.4 0.00 0.00 0.00 48 1022.5
20260906040036 17 0 1.6 4.8 0.00 0.00 0.00 49 1022.8
20260906034016 17 135 3.2 4.8 0.00 0.00 0.00 47 1022.2
20260906033036 17 135 3.2 6.4 0.00 0.00 0.00 47 1022.0
20260906032036 18 113 4.8 9.7 0.00 0.00 0.00 46 1021.7
20260906031016 18 135 4.8 8.0 0.00 0.00 0.00 44 1021.9
20260906030036 19 135 4.8 9.7 0.00 0.00 0.00 44 1021.7
20260906025036 19 135 9.7 12.9 0.00 0.00 0.00 44 1021.2
20260906024116 18 135 8.0 11.3 0.00 0.00 0.00 46 1020.9
20260906023015 18 158 8.0 11.3 0.00 0.00 0.00 46 1020.7
20260906022015 18 158 9.7 16.1 0.00 0.00 0.00 46 1020.1
20260906021015 19 135 8.0 11.3 0.00 0.00 0.00 46 1020.0
20260906020015 20 293 3.2 8.0 0.00 0.00 0.00 47 1020.2
20260906015015 21 113 1.6 4.8 0.00 0.00 0.00 45 1020.0
20260906014016 22 113 6.4 11.3 0.00 0.00 0.00 44 1020.3
20260906013035 23 113 1.6 4.8 0.00 0.00 0.00 42 1020.6
20260906012015 23 135 4.8 6.4 0.00 0.00 0.00 40 1020.9
20260906011036 24 135 3.2 8.0 0.00 0.00 0.00 38 1021.2
20260906010016 25 90 14.5 22.5 0.00 0.00 0.00 30 1021.3
20260906005015 26 90 9.7 22.5 0.00 0.00 0.00 28 1021.6
20260906004015 27 68 9.7 19.3 0.00 0.00 0.00 29 1022.0
20260906003015 26 90 14.5 20.9 0.00 0.00 0.00 28 1021.6
20260906002015 26 45 9.7 17.7 0.00 0.00 0.00 26 1021.6
20260906001015 27 338 8.0 11.3 0.00 0.00 0.00 26 1021.9
20260906000015 27 270 6.4 11.3 0.00 0.00 0.00 25 1022.0
20260905235016 27 180 1.6 6.4 0.00 0.00 0.00 22 1021.9
20260905234015 27 135 3.2 8.0 0.00 0.00 0.00 23 1022.0
20260905233035 28 23 4.8 8.0 0.00 0.00 0.00 22 1022.2
20260905232015 28 45 3.2 8.0 0.00 0.00 0.00 22 1022.2